TimeEDT,TemperatureF,Dew PointF,Humidity,Sea Level PressureIn,VisibilityMPH,Wind Direction,Wind SpeedMPH,Gust SpeedMPH,PrecipitationIn,Events,Conditions,WindDirDegrees,DateUTC
12:15 AM,60.8,57.2,88,30.05,10.0,Calm,Calm,-,N/A,,Clear,0,2013-08-20 04:15:00
12:35 AM,61.7,57.4,86,30.04,10.0,Calm,Calm,-,N/A,,Clear,0,2013-08-20 04:35:00
12:55 AM,59.9,56.5,88,30.05,10.0,Calm,Calm,-,N/A,,Clear,0,2013-08-20 04:55:00
1:15 AM,60.6,56.7,87,30.05,10.0,Calm,Calm,-,N/A,,Clear,0,2013-08-20 05:15:00
1:35 AM,59.0,55.4,88,30.05,10.0,Calm,Calm,-,N/A,,Clear,0,2013-08-20 05:35:00
1:55 AM,58.8,55.6,89,30.05,5.0,Calm,Calm,-,N/A,,Clear,0,2013-08-20 05:55:00
2:15 AM,57.4,54.5,90,30.05,2.0,Calm,Calm,-,N/A,,Clear,0,2013-08-20 06:15:00
2:35 AM,58.1,55.2,90,30.05,7.0,Calm,Calm,-,N/A,,Clear,0,2013-08-20 06:35:00
2:55 AM,57.6,54.9,91,30.05,5.0,Calm,Calm,-,N/A,,Clear,0,2013-08-20 06:55:00
3:15 AM,56.7,54.0,91,30.05,1.0,Calm,Calm,-,N/A,,Mist,0,2013-08-20 07:15:00
3:35 AM,57.2,54.5,91,30.06,0.8,Calm,Calm,-,N/A,,Mist,0,2013-08-20 07:35:00
3:55 AM,57.0,54.3,91,30.06,0.2,Calm,Calm,-,N/A,Fog,Fog,0,2013-08-20 07:55:00
4:15 AM,55.8,53.1,91,30.06,0.2,Calm,Calm,-,N/A,Fog,Fog,0,2013-08-20 08:15:00
4:35 AM,57.0,54.5,91,30.06,1.8,Calm,Calm,-,N/A,,Mist,0,2013-08-20 08:35:00
4:55 AM,56.3,53.6,91,30.06,1.5,Calm,Calm,-,N/A,,Mist,0,2013-08-20 08:55:00
5:15 AM,55.8,53.6,92,30.07,0.2,Calm,Calm,-,N/A,Fog,Fog,0,2013-08-20 09:15:00
5:35 AM,54.7,52.3,92,30.07,0.2,Calm,Calm,-,N/A,Fog,Fog,0,2013-08-20 09:35:00
5:55 AM,54.5,52.2,92,30.08,0.2,Calm,Calm,-,N/A,Fog,Fog,0,2013-08-20 09:55:00
6:15 AM,55.4,53.1,92,30.08,0.2,Calm,Calm,-,N/A,Fog,Fog,0,2013-08-20 10:15:00
6:35 AM,54.7,52.3,92,30.08,0.2,Calm,Calm,-,N/A,Fog,Fog,0,2013-08-20 10:35:00
6:55 AM,55.8,53.6,92,30.09,0.2,Calm,Calm,-,N/A,Fog,Fog,0,2013-08-20 10:55:00
7:15 AM,56.5,54.1,92,30.09,0.2,Calm,Calm,-,N/A,Fog,Fog,0,2013-08-20 11:15:00
7:35 AM,57.2,54.7,91,30.10,0.2,Calm,Calm,-,N/A,Fog,Fog,0,2013-08-20 11:35:00
7:55 AM,58.1,55.6,91,30.10,0.2,Calm,Calm,-,N/A,Fog,Fog,0,2013-08-20 11:55:00
8:15 AM,58.3,55.8,91,30.11,0.2,Calm,Calm,-,N/A,Fog,Fog,0,2013-08-20 12:15:00
8:35 AM,58.6,56.3,92,30.11,4.0,Calm,Calm,-,N/A,,Mostly Cloudy,0,2013-08-20 12:35:00
8:55 AM,60.1,57.6,91,30.11,3.0,Calm,Calm,-,N/A,,Mostly Cloudy,0,2013-08-20 12:55:00
9:15 AM,61.7,59.0,91,30.12,10.0,Calm,Calm,-,N/A,,Scattered Clouds,0,2013-08-20 13:15:00
9:35 AM,63.5,60.8,91,30.12,10.0,Calm,Calm,-,N/A,,Clear,0,2013-08-20 13:35:00
9:55 AM,64.8,61.9,90,30.12,10.0,ESE,3.5,-,N/A,,Clear,110,2013-08-20 13:55:00
10:15 AM,66.7,58.5,75,30.12,10.0,SE,3.5,-,N/A,,Clear,140,2013-08-20 14:15:00
10:35 AM,70.3,57.4,63,30.11,10.0,SSE,3.5,-,N/A,,Clear,150,2013-08-20 14:35:00
10:55 AM,70.9,57.4,62,30.11,10.0,South,3.5,-,N/A,,Clear,170,2013-08-20 14:55:00
11:15 AM,72.9,57.9,59,30.11,10.0,South,3.5,-,N/A,,Clear,180,2013-08-20 15:15:00
11:35 AM,74.7,57.0,54,30.12,10.0,West,4.6,-,N/A,,Clear,260,2013-08-20 15:35:00
11:55 AM,77.4,56.5,48,30.11,10.0,WSW,8.1,-,N/A,,Clear,240,2013-08-20 15:55:00
12:15 PM,78.1,51.8,40,30.11,10.0,WNW,13.8,21.9,N/A,,Clear,290,2013-08-20 16:15:00
12:35 PM,78.3,51.3,39,30.11,10.0,WNW,16.1,21.9,N/A,,Clear,290,2013-08-20 16:35:00
12:55 PM,79.0,50.0,36,30.11,10.0,West,9.2,17.3,N/A,,Clear,270,2013-08-20 16:55:00
1:15 PM,79.7,50.0,35,30.11,10.0,WNW,9.2,17.3,N/A,,Clear,290,2013-08-20 17:15:00
1:35 PM,80.6,50.0,34,30.11,10.0,West,12.7,18.4,N/A,,Clear,280,2013-08-20 17:35:00
1:55 PM,80.8,51.6,36,30.11,10.0,WNW,12.7,19.6,N/A,,Clear,290,2013-08-20 17:55:00
2:15 PM,80.8,51.8,36,30.11,10.0,West,8.1,-,N/A,,Clear,260,2013-08-20 18:15:00
2:35 PM,79.7,51.6,38,30.10,10.0,West,8.1,-,N/A,,Clear,280,2013-08-20 18:35:00
2:55 PM,81.1,53.1,38,30.10,10.0,West,10.4,-,N/A,,Scattered Clouds,270,2013-08-20 18:55:00
3:15 PM,80.8,53.4,39,30.09,10.0,West,11.5,-,N/A,,Scattered Clouds,260,2013-08-20 19:15:00
3:35 PM,81.1,54.5,40,30.09,10.0,WSW,9.2,-,N/A,,Scattered Clouds,250,2013-08-20 19:35:00
3:55 PM,80.4,54.1,40,30.09,10.0,West,6.9,-,N/A,,Scattered Clouds,270,2013-08-20 19:55:00
4:15 PM,80.8,54.1,40,30.09,10.0,West,10.4,-,N/A,,Scattered Clouds,280,2013-08-20 20:15:00
4:35 PM,79.7,54.1,41,30.09,10.0,West,6.9,-,N/A,,Mostly Cloudy,260,2013-08-20 20:35:00
4:55 PM,79.2,54.9,43,30.09,10.0,WNW,8.1,-,N/A,,Scattered Clouds,290,2013-08-20 20:55:00
5:15 PM,78.8,55.0,44,30.09,10.0,West,5.8,-,N/A,,Scattered Clouds,280,2013-08-20 21:15:00
5:35 PM,79.0,55.8,45,30.09,10.0,West,8.1,-,N/A,,Scattered Clouds,270,2013-08-20 21:35:00
5:55 PM,79.0,56.7,46,30.10,10.0,West,6.9,-,N/A,,Clear,280,2013-08-20 21:55:00
6:15 PM,77.5,56.8,49,30.10,10.0,West,4.6,-,N/A,,Mostly Cloudy,270,2013-08-20 22:15:00
6:35 PM,77.4,58.6,52,30.10,10.0,West,3.5,-,N/A,,Overcast,280,2013-08-20 22:35:00
6:55 PM,77.4,58.8,53,30.10,10.0,Calm,Calm,-,N/A,,Overcast,0,2013-08-20 22:55:00
7:15 PM,76.1,58.3,54,30.10,10.0,Calm,Calm,-,N/A,,Mostly Cloudy,0,2013-08-20 23:15:00
7:35 PM,75.6,58.1,55,30.11,10.0,Calm,Calm,-,N/A,,Overcast,0,2013-08-20 23:35:00
7:55 PM,74.1,57.9,57,30.11,10.0,Calm,Calm,-,N/A,,Scattered Clouds,0,2013-08-20 23:55:00
8:15 PM,72.5,58.1,60,30.11,10.0,Calm,Calm,-,N/A,,Clear,0,2013-08-21 00:15:00
8:35 PM,72.0,59.0,64,30.11,10.0,Calm,Calm,-,N/A,,Clear,0,2013-08-21 00:35:00
8:55 PM,70.5,59.2,67,30.11,10.0,West,3.5,-,N/A,,Clear,260,2013-08-21 00:55:00
9:15 PM,67.5,59.0,74,30.12,10.0,Calm,Calm,-,N/A,,Clear,0,2013-08-21 01:15:00
9:35 PM,68.7,59.2,72,30.12,10.0,Calm,Calm,-,N/A,,Clear,0,2013-08-21 01:35:00
9:55 PM,68.2,60.1,75,30.13,10.0,Calm,Calm,-,N/A,,Clear,0,2013-08-21 01:55:00
10:15 PM,65.1,59.2,81,30.13,10.0,Calm,Calm,-,N/A,,Clear,0,2013-08-21 02:15:00
10:35 PM,66.2,60.1,81,30.13,10.0,Calm,Calm,-,N/A,,Clear,0,2013-08-21 02:35:00
10:55 PM,64.9,59.4,82,30.13,10.0,Calm,Calm,-,N/A,,Clear,0,2013-08-21 02:55:00
11:15 PM,64.0,58.8,83,30.13,10.0,Calm,Calm,-,N/A,,Clear,0,2013-08-21 03:15:00
11:35 PM,63.5,59.0,85,30.13,10.0,Calm,Calm,-,N/A,,Clear,0,2013-08-21 03:35:00
11:55 PM,63.5,59.2,86,30.13,10.0,Calm,Calm,-,N/A,,Clear,0,2013-08-21 03:55:00